Weather History for KTQE - December, 2012

Change the Weather History Date:

Monday, December 3, 2012

  Actual Average Record
Temperature  
Mean Temperature 48 °F -  
Max Temperature 63 °F 37 °F 64 °F (1956)
Min Temperature 32 °F 18 °F -2 °F (1985)
Degree Days  
Heating Degree Days 18    
Moisture  
Dew Point 37 °F    
Average Humidity 71    
Maximum Humidity 97    
Minimum Humidity 32    
Precipitation  
Precipitation 0.01 in - - ()
Sea Level Pressure  
Sea Level Pressure 29.77 in    
Wind  
Wind Speed 11 mph (WSW)    
Max Wind Speed 31 mph    
Max Gust Speed 39 mph    
Visibility 5 miles    
Events Fog    
Averages and records for this station are not official NWS values.
T = Trace of Precipitation, MM = Missing Value Source: NWS Daily Summary

Daily Weather History Graph

Daily Weather History Graph

Search for Another Location

Airport or City:

Trip Planner

Search our weather history database for the weather conditions in past years. The results will help you decide how hot, cold, wet, or windy it might be!

Date:

Astronomy

Dec. 03, 2012 Rise Set
Actual Time 7:35 AM CST 4:54 PM CST
Civil Twilight 7:03 AM CST 5:25 PM CST
Nautical Twilight 6:29 AM CST 6:00 PM CST
Astronomical Twilight 5:55 AM CST 6:33 PM CST
Moon 9:44 PM CST (12/3) 10:56 AM CST (12/3)
Length of Visible Light 10h 21m
Length of Day
9h 19m
Waning Gibbous, 78% of the Moon is Illuminated
Dec 3
Waning Gibbous
Dec 6
Last Quarter
Dec 13
New
Dec 19
First Quarter
Dec 28
Full

Hourly Weather History & Observations

Time (CST) Temp. Windchill Dew Point Humidity Pressure Visibility Wind Dir Wind Speed Gust Speed Precip Events Conditions
12:54 AM 45.0 °F 38.9 °F 41.0 °F 86% 29.71 in 4.0 mi SSE 12.7 mph - N/A   Clear
1:54 AM 45.0 °F 38.5 °F 42.1 °F 90% 29.68 in 3.0 mi SSE 13.8 mph - N/A   Clear
2:11 AM 44.6 °F 39.2 °F 42.8 °F 93% 29.68 in 2.5 mi SE 10.4 mph - N/A   Clear
2:54 AM 45.0 °F 40.1 °F 43.0 °F 93% 29.65 in 2.5 mi South 9.2 mph - N/A   Clear
3:54 AM 46.0 °F 40.6 °F 43.0 °F 89% 29.61 in 2.5 mi SSE 11.5 mph - N/A   Clear
4:54 AM 42.1 °F 39.2 °F 41.0 °F 96% 29.60 in 0.8 mi South 4.6 mph - N/A   Clear
5:01 AM 39.2 °F 35.9 °F 37.4 °F 93% 29.61 in 0.2 mi SW 4.6 mph - N/A Fog Fog
5:21 AM 39.2 °F - 37.4 °F 93% 29.62 in 0.2 mi Calm Calm - N/A Fog Fog
5:30 AM 39.2 °F - 37.4 °F 93% 29.62 in 0.2 mi Calm Calm - N/A Fog Fog
5:54 AM 36.0 °F - 35.1 °F 97% 29.62 in 0.2 mi Calm Calm - N/A Fog Fog
6:54 AM 39.0 °F 35.7 °F 37.9 °F 96% 29.62 in 0.2 mi South 4.6 mph - N/A Fog Fog
7:54 AM 43.0 °F 39.5 °F 41.0 °F 93% 29.62 in 0.2 mi SSW 5.8 mph - N/A Fog Fog
8:54 AM 48.9 °F - 46.9 °F 93% 29.65 in 0.2 mi SW 5.8 mph - N/A Fog Fog
9:19 AM 50.0 °F - 48.2 °F 94% 29.66 in 1.2 mi SW 10.4 mph - N/A   Overcast
9:36 AM 51.8 °F - 48.2 °F 88% 29.65 in 2.5 mi WSW 11.5 mph - N/A   Mostly Cloudy
9:43 AM 51.8 °F - 48.2 °F 88% 29.66 in 3.0 mi WSW 12.7 mph - N/A   Scattered Clouds
9:54 AM 52.0 °F - 46.9 °F 83% 29.66 in 4.0 mi West 10.4 mph - N/A   Haze
10:54 AM 55.0 °F - 41.0 °F 59% 29.69 in 10.0 mi NNW 17.3 mph 27.6 mph N/A   Clear
11:54 AM 60.1 °F - 41.0 °F 49% 29.73 in 10.0 mi NNW 31.1 mph 39.1 mph 0.01 in   Clear
12:54 PM 63.0 °F - 39.0 °F 41% 29.75 in 10.0 mi NNW 26.5 mph 34.5 mph N/A   Clear
1:54 PM 63.0 °F - 37.0 °F 38% 29.79 in 10.0 mi NW 23.0 mph 32.2 mph N/A   Clear
2:54 PM 61.0 °F - 34.0 °F 36% 29.83 in 10.0 mi NNW 18.4 mph - N/A   Scattered Clouds
3:54 PM 60.1 °F - 30.0 °F 32% 29.88 in 10.0 mi NW 18.4 mph 26.5 mph N/A   Mostly Cloudy
4:54 PM 51.1 °F - 30.0 °F 44% 29.92 in 10.0 mi NW 11.5 mph - N/A   Clear
5:54 PM 46.9 °F - 30.0 °F 52% 29.96 in 10.0 mi WNW 6.9 mph - N/A   Clear
6:54 PM 48.9 °F - 27.0 °F 43% 29.99 in 10.0 mi WNW 11.5 mph - N/A   Clear
7:54 PM 48.0 °F - 24.1 °F 39% 30.02 in 10.0 mi NW 10.4 mph - N/A   Clear
8:54 PM 43.0 °F 38.8 °F 24.1 °F 47% 30.04 in 10.0 mi WNW 6.9 mph - N/A   Clear
9:54 PM 41.0 °F 34.7 °F 23.0 °F 49% 30.05 in 10.0 mi WNW 10.4 mph - N/A   Clear
10:54 PM 32.0 °F 28.7 °F 19.9 °F 61% 30.08 in 10.0 mi South 3.5 mph - N/A   Clear
11:54 PM 35.1 °F 28.6 °F 19.9 °F 54% 30.08 in 10.0 mi West 8.1 mph - N/A   Clear